"read_dt","SO2 (ppb)","flags","PMT voltage (V)","lamp voltage (V)","lamp intensity (Hz)","internal temp (C)","react chamber temp (C)","sample flow (l/min)","pres (mmHg)","SO2 bkg (ppb)","SO2 coefficient"
2015-02-21 00:00:00,2259E-3,5C000000,-0724,0836,12150,028.9,045.5,0.454,749.0,01.17,0.508
2015-02-21 00:01:00,2305E-3,5C000000,-0724,0837,12157,029.0,045.5,0.454,749.0,01.17,0.508
2015-02-21 00:02:00,2302E-3,5C000000,-0724,0836,12165,029.1,045.5,0.454,749.0,01.17,0.508
2015-02-21 00:03:00,2248E-3,5C000000,-0724,0836,12131,029.1,045.5,0.454,749.0,01.17,0.508
2015-02-21 00:04:00,2217E-3,5C000000,-0724,0836,12162,029.2,045.5,0.454,749.0,01.17,0.508
2015-02-21 00:05:00,2266E-3,5C000000,-0724,0836,12139,029.2,045.5,0.454,749.0,01.17,0.508
2015-02-21 00:06:00,2232E-3,5C000000,-0724,0836,12114,029.2,045.5,0.454,749.0,01.17,0.508
2015-02-21 00:07:00,2307E-3,5C000000,-0724,0835,12158,029.3,045.5,0.454,749.0,01.17,0.508
2015-02-21 00:08:00,2249E-3,5C000000,-0724,0836,12183,029.3,045.5,0.454,749.0,01.17,0.508
2015-02-21 00:09:00,2264E-3,5C000000,-0724,0836,12206,029.4,045.5,0.454,749.0,01.17,0.508
2015-02-21 00:10:00,2350E-3,5C000000,-0724,0837,12011,029.4,045.5,0.454,749.0,01.17,0.508
2015-02-21 00:11:00,2192E-3,5C000000,-0724,0836,12111,029.5,045.5,0.454,749.0,01.17,0.508
2015-02-21 00:12:00,2299E-3,5C000000,-0724,0837,12135,029.5,045.5,0.453,749.0,01.17,0.508
2015-02-21 00:13:00,2259E-3,5C000000,-0724,0835,12031,029.6,045.5,0.453,749.0,01.17,0.508
2015-02-21 00:14:00,2257E-3,5C000000,-0724,0836,12248,029.6,045.5,0.453,749.0,01.17,0.508
2015-02-21 00:15:00,2221E-3,5C000000,-0724,0836,12205,029.6,045.5,0.453,749.0,01.17,0.508
2015-02-21 00:16:00,2257E-3,5C000000,-0724,0836,12220,029.6,045.5,0.454,749.0,01.17,0.508
2015-02-21 00:17:00,2384E-3,5C000000,-0724,0837,11997,029.7,045.5,0.454,749.0,01.17,0.508
2015-02-21 00:18:00,2079E-3,5C000000,-0724,0837,12249,029.7,045.5,0.453,749.0,01.17,0.508
2015-02-21 00:19:00,2200E-3,5C000000,-0724,0837,11976,029.7,045.5,0.453,749.0,01.17,0.508
2015-02-21 00:20:00,2334E-3,5C000000,-0724,0836,12096,029.8,045.5,0.453,749.0,01.17,0.508
2015-02-21 00:21:00,2259E-3,5C000000,-0724,0837,12110,029.8,045.5,0.453,749.0,01.17,0.508
2015-02-21 00:22:00,2223E-3,5C000000,-0724,0836,12023,029.8,045.5,0.453,749.0,01.17,0.508
2015-02-21 00:23:00,2322E-3,5C000000,-0724,0836,12042,029.8,045.5,0.453,749.0,01.17,0.508
2015-02-21 00:24:00,2323E-3,5C000000,-0724,0836,12126,029.9,045.5,0.453,749.0,01.17,0.508
2015-02-21 00:25:00,2186E-3,5C000000,-0724,0836,12079,029.9,045.5,0.453,749.0,01.17,0.508
2015-02-21 00:26:00,2254E-3,5C000000,-0724,0836,12202,029.9,045.5,0.452,749.0,01.17,0.508
2015-02-21 00:27:00,2383E-3,5C000000,-0724,0836,12190,030.0,045.5,0.453,749.0,01.17,0.508
2015-02-21 00:28:00,2221E-3,5C000000,-0724,0837,12131,030.0,045.5,0.453,748.9,01.17,0.508
2015-02-21 00:29:00,2206E-3,5C000000,-0724,0836,11952,030.0,045.5,0.453,749.0,01.17,0.508
2015-02-21 00:30:00,2309E-3,5C000000,-0724,0836,12198,030.0,045.5,0.453,748.9,01.17,0.508
2015-02-21 00:31:00,2248E-3,5C000000,-0724,0835,12104,030.0,045.5,0.452,748.9,01.17,0.508
2015-02-21 00:32:00,2314E-3,5C000000,-0724,0836,12038,030.1,045.5,0.453,748.9,01.17,0.508
2015-02-21 00:33:00,2315E-3,5C000000,-0724,0836,11988,030.1,045.5,0.453,748.9,01.17,0.508
2015-02-21 00:34:00,2329E-3,5C000000,-0724,0837,12051,030.1,045.5,0.452,748.9,01.17,0.508
2015-02-21 00:35:00,2334E-3,5C000000,-0724,0838,12133,030.1,045.5,0.452,748.9,01.17,0.508
2015-02-21 00:36:00,2257E-3,5C000000,-0724,0837,12245,030.1,045.5,0.453,748.9,01.17,0.508
2015-02-21 00:37:00,2092E-3,5C000000,-0724,0837,12104,030.2,045.5,0.453,748.9,01.17,0.508
2015-02-21 00:38:00,2136E-3,5C000000,-0724,0837,12101,030.2,045.5,0.452,748.9,01.17,0.508
2015-02-21 00:39:00,2198E-3,5C000000,-0724,0836,12081,030.2,045.5,0.452,748.9,01.17,0.508
2015-02-21 00:40:00,2085E-3,5C000000,-0724,0836,12027,030.2,045.5,0.452,748.9,01.17,0.508
2015-02-21 00:41:00,2299E-3,5C000000,-0724,0836,12172,030.2,045.5,0.452,748.9,01.17,0.508
2015-02-21 00:42:00,2290E-3,5C000000,-0724,0836,11921,030.2,045.5,0.453,748.9,01.17,0.508
2015-02-21 00:43:00,2371E-3,5C000000,-0724,0836,11978,030.3,045.5,0.452,748.9,01.17,0.508
2015-02-21 00:44:00,2225E-3,5C000000,-0724,0835,12100,030.3,045.5,0.452,748.9,01.17,0.508
2015-02-21 00:45:00,2171E-3,5C000000,-0724,0838,12155,030.3,045.5,0.452,748.9,01.17,0.508
2015-02-21 00:46:00,2453E-3,5C000000,-0724,0837,12183,030.3,045.5,0.452,748.9,01.17,0.508
2015-02-21 00:47:00,2019E-3,5C000000,-0724,0837,12191,030.4,045.5,0.452,748.9,01.17,0.508
2015-02-21 00:48:00,2308E-3,5C000000,-0724,0836,12198,030.4,045.5,0.452,748.9,01.17,0.508
2015-02-21 00:49:00,2196E-3,5C000000,-0724,0837,11978,030.4,045.5,0.452,748.8,01.17,0.508
2015-02-21 00:50:00,2145E-3,5C000000,-0724,0837,12080,030.4,045.5,0.452,748.8,01.17,0.508
2015-02-21 00:51:00,2228E-3,5C000000,-0724,0837,11940,030.4,045.5,0.452,748.8,01.17,0.508
2015-02-21 00:52:00,2256E-3,5C000000,-0724,0836,12178,030.4,045.5,0.452,748.8,01.17,0.508
2015-02-21 00:53:00,2180E-3,5C000000,-0724,0837,11892,030.4,045.5,0.452,748.8,01.17,0.508
2015-02-21 00:54:00,2260E-3,5C000000,-0724,0837,12201,030.5,045.5,0.452,748.8,01.17,0.508
2015-02-21 00:55:00,2244E-3,5C000000,-0724,0837,11942,030.5,045.5,0.452,748.8,01.17,0.508
2015-02-21 00:56:00,2220E-3,5C000000,-0724,0837,12082,030.5,045.5,0.452,748.8,01.17,0.508
2015-02-21 00:57:00,2247E-3,5C000000,-0724,0837,12152,030.5,045.5,0.452,748.8,01.17,0.508
2015-02-21 00:58:00,2192E-3,5C000000,-0724,0838,12168,030.5,045.5,0.452,748.8,01.17,0.508
2015-02-21 00:59:00,2118E-3,5C000000,-0724,0837,12144,030.5,045.5,0.452,748.8,01.17,0.508
2015-02-21 01:00:00,2186E-3,5C000000,-0724,0837,12157,030.5,045.5,0.452,748.8,01.17,0.508
2015-02-21 01:01:00,2147E-3,5C000000,-0724,0836,12251,030.5,045.5,0.452,748.8,01.17,0.508
2015-02-21 01:02:00,2102E-3,5C000000,-0724,0838,11988,030.5,045.5,0.451,748.8,01.17,0.508
2015-02-21 01:03:00,2327E-3,5C000000,-0724,0837,12137,030.5,045.5,0.452,748.8,01.17,0.508
2015-02-21 01:04:00,2216E-3,5C000000,-0724,0838,12024,030.6,045.5,0.452,748.8,01.17,0.508
2015-02-21 01:05:00,2251E-3,5C000000,-0724,0838,12196,030.6,045.5,0.451,748.7,01.17,0.508
2015-02-21 01:06:00,2118E-3,5C000000,-0724,0836,12229,030.6,045.5,0.452,748.7,01.17,0.508
2015-02-21 01:07:00,2212E-3,5C000000,-0724,0837,12154,030.6,045.5,0.452,748.8,01.17,0.508
2015-02-21 01:08:00,2327E-3,5C000000,-0724,0838,12075,030.6,045.5,0.451,748.8,01.17,0.508
2015-02-21 01:09:00,2303E-3,5C000000,-0724,0837,12082,030.6,045.5,0.452,748.8,01.17,0.508
2015-02-21 01:10:00,2179E-3,5C000000,-0724,0838,11967,030.6,045.5,0.452,748.8,01.17,0.508
2015-02-21 01:11:00,2058E-3,5C000000,-0724,0837,12171,030.6,045.5,0.451,748.8,01.17,0.508
2015-02-21 01:12:00,2173E-3,5C000000,-0724,0837,11941,030.6,045.5,0.452,748.8,01.17,0.508
2015-02-21 01:13:00,2186E-3,5C000000,-0724,0837,12252,030.6,045.5,0.452,748.8,01.17,0.508
2015-02-21 01:14:00,2185E-3,5C000000,-0724,0837,12034,030.6,045.5,0.452,748.8,01.17,0.508
2015-02-21 01:15:00,2171E-3,5C000000,-0724,0836,12201,030.5,045.5,0.452,748.8,01.17,0.508
2015-02-21 01:16:00,2252E-3,5C000000,-0724,0837,12173,030.3,045.5,0.452,748.8,01.17,0.508
2015-02-21 01:17:00,2207E-3,5C000000,-0724,0837,12123,030.2,045.5,0.452,748.8,01.17,0.508
2015-02-21 01:18:00,2131E-3,5C000000,-0724,0835,12204,030.1,045.5,0.452,748.8,01.17,0.508
2015-02-21 01:19:00,2274E-3,5C000000,-0724,0836,12244,029.9,045.5,0.452,748.8,01.17,0.508
2015-02-21 01:20:00,2148E-3,5C000000,-0724,0836,12025,029.7,045.5,0.452,748.8,01.17,0.508
2015-02-21 01:21:00,2267E-3,5C000000,-0724,0837,11947,029.5,045.5,0.453,748.8,01.17,0.508
2015-02-21 01:22:00,2254E-3,5C000000,-0724,0837,12131,029.3,045.5,0.453,748.8,01.17,0.508
2015-02-21 01:23:00,2250E-3,5C000000,-0724,0837,12160,029.1,045.5,0.453,748.8,01.17,0.508
2015-02-21 01:24:00,2155E-3,5C000000,-0724,0836,12193,029.0,045.5,0.454,748.8,01.17,0.508
2015-02-21 01:25:00,2121E-3,5C000000,-0724,0836,12204,028.9,045.5,0.454,748.8,01.17,0.508
2015-02-21 01:26:00,2251E-3,5C000000,-0724,0836,12099,028.8,045.5,0.454,748.8,01.17,0.508
2015-02-21 01:27:00,2217E-3,5C000000,-0724,0835,12172,028.7,045.5,0.454,748.8,01.17,0.508
2015-02-21 01:28:00,2277E-3,5C000000,-0724,0836,12217,028.7,045.5,0.454,748.8,01.17,0.508
2015-02-21 01:29:00,2187E-3,5C000000,-0724,0836,12067,028.7,045.5,0.454,748.7,01.17,0.508
2015-02-21 01:30:00,2186E-3,5C000000,-0724,0836,12198,028.8,045.5,0.454,748.7,01.17,0.508
2015-02-21 01:31:00,2122E-3,5C000000,-0724,0836,12039,028.8,045.5,0.454,748.7,01.17,0.508
2015-02-21 01:32:00,2244E-3,5C000000,-0724,0836,12209,028.9,045.5,0.455,748.7,01.17,0.508
2015-02-21 01:33:00,2053E-3,5C000000,-0724,0836,12185,029.0,045.5,0.454,748.7,01.17,0.508
2015-02-21 01:34:00,2259E-3,5C000000,-0724,0837,12181,029.1,045.5,0.454,748.7,01.17,0.508
2015-02-21 01:35:00,2133E-3,5C000000,-0724,0836,12055,029.1,045.5,0.454,748.7,01.17,0.508
2015-02-21 01:36:00,2200E-3,5C000000,-0724,0836,12042,029.2,045.5,0.454,748.7,01.17,0.508
2015-02-21 01:37:00,2159E-3,5C000000,-0724,0836,12021,029.2,045.5,0.454,748.7,01.17,0.508
2015-02-21 01:38:00,2252E-3,5C000000,-0724,0835,12136,029.3,045.5,0.454,748.7,01.17,0.508
2015-02-21 01:39:00,2111E-3,5C000000,-0724,0836,11858,029.4,045.5,0.454,748.7,01.17,0.508
2015-02-21 01:40:00,2334E-3,5C000000,-0724,0836,12048,029.4,045.5,0.453,748.7,01.17,0.508
2015-02-21 01:41:00,2086E-3,5C000000,-0724,0836,12123,029.4,045.5,0.453,748.7,01.17,0.508
2015-02-21 01:42:00,2260E-3,5C000000,-0724,0836,12091,029.5,045.5,0.453,748.7,01.17,0.508
2015-02-21 01:43:00,2089E-3,5C000000,-0724,0836,12100,029.5,045.5,0.453,748.7,01.17,0.508
2015-02-21 01:44:00,2221E-3,5C000000,-0724,0835,12128,029.6,045.5,0.453,748.7,01.17,0.508
2015-02-21 01:45:00,2230E-3,5C000000,-0724,0836,12114,029.6,045.5,0.453,748.6,01.17,0.508
2015-02-21 01:46:00,2180E-3,5C000000,-0724,0836,12216,029.7,045.5,0.453,748.6,01.17,0.508
2015-02-21 01:47:00,2180E-3,5C000000,-0724,0836,11916,029.7,045.5,0.453,748.6,01.17,0.508
2015-02-21 01:48:00,2131E-3,5C000000,-0724,0837,12169,029.7,045.5,0.453,748.6,01.17,0.508
2015-02-21 01:49:00,2055E-3,5C000000,-0724,0836,12073,029.7,045.5,0.453,748.6,01.17,0.508
2015-02-21 01:50:00,2202E-3,5C000000,-0724,0837,12324,029.8,045.5,0.453,748.6,01.17,0.508
2015-02-21 01:51:00,2303E-3,5C000000,-0724,0838,12216,029.8,045.5,0.453,748.5,01.17,0.508
2015-02-21 01:52:00,2091E-3,5C000000,-0724,0837,12161,029.8,045.5,0.453,748.5,01.17,0.508
2015-02-21 01:53:00,2037E-3,5C000000,-0724,0837,12171,029.9,045.5,0.452,748.5,01.17,0.508
2015-02-21 01:54:00,2151E-3,5C000000,-0724,0837,12094,029.9,045.5,0.452,748.5,01.17,0.508
2015-02-21 01:55:00,2062E-3,5C000000,-0724,0836,12087,030.0,045.5,0.453,748.5,01.17,0.508
2015-02-21 01:56:00,2216E-3,5C000000,-0724,0836,12079,029.9,045.5,0.453,748.5,01.17,0.508
2015-02-21 01:57:00,2012E-3,5C000000,-0724,0837,12155,030.0,045.5,0.453,748.5,01.17,0.508
2015-02-21 01:58:00,2226E-3,5C000000,-0724,0836,12102,030.0,045.5,0.453,748.5,01.17,0.508
2015-02-21 01:59:00,2201E-3,5C000000,-0724,0837,11991,030.0,045.5,0.453,748.5,01.17,0.508
2015-02-21 02:00:00,2230E-3,5C000000,-0724,0837,12148,030.1,045.5,0.452,748.5,01.17,0.508
2015-02-21 02:01:00,2151E-3,5C000000,-0724,0837,12157,030.1,045.5,0.452,748.5,01.17,0.508
2015-02-21 02:02:00,2206E-3,5C000000,-0724,0836,12210,030.1,045.5,0.452,748.5,01.17,0.508
2015-02-21 02:03:00,2148E-3,5C000000,-0724,0837,12169,030.1,045.5,0.452,748.5,01.17,0.508
2015-02-21 02:04:00,2063E-3,5C000000,-0724,0836,12177,030.2,045.5,0.452,748.5,01.17,0.508
2015-02-21 02:05:00,2106E-3,5C000000,-0724,0837,12189,030.2,045.5,0.452,748.5,01.17,0.508
2015-02-21 02:06:00,2224E-3,5C000000,-0724,0837,12297,030.2,045.5,0.452,748.5,01.17,0.508
2015-02-21 02:07:00,2175E-3,5C000000,-0724,0836,12069,030.2,045.5,0.452,748.5,01.17,0.508
2015-02-21 02:08:00,2126E-3,5C000000,-0724,0836,12261,030.3,045.5,0.452,748.5,01.17,0.508
2015-02-21 02:09:00,2291E-3,5C000000,-0724,0836,12267,030.3,045.5,0.452,748.5,01.17,0.508
2015-02-21 02:10:00,2188E-3,5C000000,-0724,0836,12142,030.3,045.5,0.452,748.5,01.17,0.508
2015-02-21 02:11:00,2265E-3,5C000000,-0724,0837,12162,030.3,045.5,0.452,748.5,01.17,0.508
2015-02-21 02:12:00,2231E-3,5C000000,-0724,0836,12138,030.4,045.5,0.452,748.5,01.17,0.508
2015-02-21 02:13:00,2255E-3,5C000000,-0724,0836,12364,030.4,045.5,0.452,748.5,01.17,0.508
2015-02-21 02:14:00,2077E-3,5C000000,-0724,0836,12102,030.4,045.5,0.452,748.5,01.17,0.508
2015-02-21 02:15:00,2064E-3,5C000000,-0724,0836,12115,030.4,045.5,0.452,748.5,01.17,0.508
2015-02-21 02:16:00,2081E-3,5C000000,-0724,0837,12232,030.4,045.5,0.452,748.5,01.17,0.508
2015-02-21 02:17:00,2276E-3,5C000000,-0724,0836,12248,030.4,045.5,0.452,748.5,01.17,0.508
2015-02-21 02:18:00,2115E-3,5C000000,-0724,0837,12205,030.5,045.5,0.452,748.5,01.17,0.508
2015-02-21 02:19:00,2367E-3,5C000000,-0724,0835,12016,030.5,045.5,0.452,748.5,01.17,0.508
2015-02-21 02:20:00,2157E-3,5C000000,-0724,0837,12043,030.5,045.5,0.452,748.5,01.17,0.508
2015-02-21 02:21:00,2176E-3,5C000000,-0724,0837,12086,030.5,045.5,0.452,748.5,01.17,0.508
2015-02-21 02:22:00,2097E-3,5C000000,-0724,0836,12149,030.5,045.5,0.452,748.5,01.17,0.508
2015-02-21 02:23:00,2167E-3,5C000000,-0724,0835,12141,030.5,045.5,0.451,748.5,01.17,0.508
2015-02-21 02:24:00,2110E-3,5C000000,-0724,0836,12209,030.4,045.5,0.452,748.5,01.17,0.508
2015-02-21 02:25:00,2137E-3,5C000000,-0724,0837,12154,030.3,045.5,0.452,748.5,01.17,0.508
2015-02-21 02:26:00,2093E-3,5C000000,-0724,0837,12222,030.2,045.5,0.452,748.5,01.17,0.508
2015-02-21 02:27:00,2183E-3,5C000000,-0724,0837,12194,030.0,045.5,0.452,748.5,01.17,0.508
2015-02-21 02:28:00,2206E-3,5C000000,-0724,0836,12131,029.8,045.5,0.452,748.5,01.17,0.508
2015-02-21 02:29:00,2044E-3,5C000000,-0724,0837,12142,029.7,045.5,0.452,748.5,01.17,0.508
2015-02-21 02:30:00,1947E-3,5C000000,-0724,0837,12000,029.5,045.5,0.453,748.5,01.17,0.508
2015-02-21 02:31:00,2154E-3,5C000000,-0724,0836,12223,029.3,045.5,0.453,748.6,01.17,0.508
2015-02-21 02:32:00,2031E-3,5C000000,-0724,0836,12175,029.1,045.5,0.453,748.5,01.17,0.508
2015-02-21 02:33:00,2079E-3,5C000000,-0724,0836,12313,028.9,045.5,0.453,748.5,01.17,0.508
2015-02-21 02:34:00,2165E-3,5C000000,-0724,0836,12130,028.8,045.5,0.453,748.5,01.17,0.508
2015-02-21 02:35:00,2267E-3,5C000000,-0724,0836,12205,028.7,045.5,0.454,748.5,01.17,0.508
2015-02-21 02:36:00,2209E-3,5C000000,-0724,0836,12202,028.6,045.5,0.454,748.5,01.17,0.508
2015-02-21 02:37:00,2049E-3,5C000000,-0724,0836,12099,028.4,045.5,0.454,748.5,01.17,0.508
2015-02-21 02:38:00,2121E-3,5C000000,-0724,0836,12360,028.4,045.5,0.454,748.5,01.17,0.508
2015-02-21 02:39:00,2203E-3,5C000000,-0724,0836,12009,028.4,045.5,0.455,748.5,01.17,0.508
2015-02-21 02:40:00,2232E-3,5C000000,-0724,0836,12033,028.4,045.5,0.455,748.5,01.17,0.508
2015-02-21 02:41:00,1960E-3,5C000000,-0724,0837,12138,028.5,045.5,0.454,748.5,01.17,0.508
2015-02-21 02:42:00,2106E-3,5C000000,-0724,0837,12208,028.6,045.5,0.455,748.4,01.17,0.508
2015-02-21 02:43:00,2154E-3,5C000000,-0724,0837,12102,028.7,045.5,0.454,748.4,01.17,0.508
2015-02-21 02:44:00,2249E-3,5C000000,-0724,0837,12164,028.8,045.5,0.455,748.4,01.17,0.508
2015-02-21 02:45:00,2105E-3,5C000000,-0724,0836,12196,028.8,045.5,0.454,748.4,01.17,0.508
2015-02-21 02:46:00,2109E-3,5C000000,-0724,0837,12119,028.9,045.5,0.454,748.3,01.17,0.508
2015-02-21 02:47:00,2086E-3,5C000000,-0724,0837,12120,029.0,045.5,0.454,748.3,01.17,0.508
2015-02-21 02:48:00,2196E-3,5C000000,-0724,0837,12067,029.1,045.5,0.454,748.2,01.17,0.508
2015-02-21 02:49:00,2014E-3,5C000000,-0724,0836,12140,029.1,045.5,0.454,748.2,01.17,0.508
2015-02-21 02:50:00,2150E-3,5C000000,-0724,0837,12128,029.2,045.5,0.454,748.2,01.17,0.508
2015-02-21 02:51:00,2202E-3,5C000000,-0724,0837,12208,029.2,045.5,0.454,748.3,01.17,0.508
2015-02-21 02:52:00,2337E-3,5C000000,-0724,0837,12211,029.3,045.5,0.454,748.3,01.17,0.508
2015-02-21 02:53:00,2348E-3,5C000000,-0724,0835,11965,029.3,045.5,0.454,748.3,01.17,0.508
2015-02-21 02:54:00,2022E-3,5C000000,-0724,0835,12193,029.4,045.5,0.454,748.3,01.17,0.508
2015-02-21 02:55:00,2085E-3,5C000000,-0724,0835,12142,029.4,045.5,0.453,748.3,01.17,0.508
2015-02-21 02:56:00,2165E-3,5C000000,-0724,0835,12105,029.5,045.5,0.453,748.3,01.17,0.508
2015-02-21 02:57:00,2093E-3,5C000000,-0724,0836,12168,029.5,045.5,0.453,748.4,01.17,0.508
2015-02-21 02:58:00,2097E-3,5C000000,-0724,0836,12082,029.6,045.5,0.453,748.4,01.17,0.508
2015-02-21 02:59:00,2233E-3,5C000000,-0724,0836,12109,029.6,045.5,0.453,748.4,01.17,0.508
2015-02-21 03:00:00,2167E-3,5C000000,-0724,0836,12060,029.6,045.5,0.453,748.4,01.17,0.508
2015-02-21 03:01:00,2086E-3,5C000000,-0724,0836,12119,029.7,045.5,0.453,748.4,01.17,0.508
2015-02-21 03:02:00,2267E-3,5C000000,-0724,0836,12136,029.7,045.5,0.453,748.4,01.17,0.508
2015-02-21 03:03:00,2188E-3,5C000000,-0724,0836,12172,029.7,045.5,0.453,748.4,01.17,0.508
2015-02-21 03:04:00,2315E-3,5C000000,-0724,0836,12120,029.8,045.5,0.453,748.3,01.17,0.508
2015-02-21 03:05:00,2148E-3,5C000000,-0724,0836,12136,029.8,045.5,0.453,748.3,01.17,0.508
2015-02-21 03:06:00,2080E-3,5C000000,-0724,0836,12192,029.9,045.5,0.453,748.3,01.17,0.508
2015-02-21 03:07:00,2183E-3,5C000000,-0724,0837,12127,029.9,045.5,0.453,748.3,01.17,0.508
2015-02-21 03:08:00,2191E-3,5C000000,-0724,0837,12241,029.9,045.5,0.452,748.2,01.17,0.508
2015-02-21 03:09:00,2135E-3,5C000000,-0724,0837,12232,030.0,045.5,0.452,748.2,01.17,0.508
2015-02-21 03:10:00,2273E-3,5C000000,-0724,0837,12126,030.0,045.5,0.452,748.2,01.17,0.508
2015-02-21 03:11:00,2098E-3,5C000000,-0724,0837,12077,030.0,045.5,0.452,748.3,01.17,0.508
2015-02-21 03:12:00,2028E-3,5C000000,-0724,0836,12069,030.1,045.5,0.452,748.2,01.17,0.508
2015-02-21 03:13:00,2135E-3,5C000000,-0724,0837,12286,030.1,045.5,0.452,748.2,01.17,0.508
2015-02-21 03:14:00,2103E-3,5C000000,-0724,0837,12156,030.1,045.5,0.452,748.2,01.17,0.508
2015-02-21 03:15:00,2204E-3,5C000000,-0724,0837,12253,030.1,045.5,0.452,748.2,01.17,0.508
2015-02-21 03:16:00,2093E-3,5C000000,-0724,0837,12031,030.1,045.5,0.452,748.3,01.17,0.508
2015-02-21 03:17:00,2140E-3,5C000000,-0724,0838,12180,030.2,045.5,0.452,748.3,01.17,0.508
2015-02-21 03:18:00,2118E-3,5C000000,-0724,0838,12244,030.2,045.5,0.452,748.3,01.17,0.508
2015-02-21 03:19:00,1970E-3,5C000000,-0724,0837,12201,030.2,045.5,0.452,748.2,01.17,0.508
2015-02-21 03:20:00,2112E-3,5C000000,-0724,0836,12150,030.2,045.5,0.452,748.2,01.17,0.508
2015-02-21 03:21:00,1944E-3,5C000000,-0724,0837,12120,030.3,045.5,0.452,748.2,01.17,0.508
2015-02-21 03:22:00,2240E-3,5C000000,-0724,0836,12141,030.3,045.5,0.452,748.2,01.17,0.508
2015-02-21 03:23:00,2303E-3,5C000000,-0724,0837,12069,030.3,045.5,0.452,748.2,01.17,0.508
2015-02-21 03:24:00,2081E-3,5C000000,-0724,0838,12029,030.4,045.5,0.451,748.2,01.17,0.508
2015-02-21 03:25:00,2163E-3,5C000000,-0724,0837,12167,030.4,045.5,0.451,748.1,01.17,0.508
2015-02-21 03:26:00,2105E-3,5C000000,-0724,0837,12105,030.4,045.5,0.452,748.0,01.17,0.508
2015-02-21 03:27:00,2094E-3,5C000000,-0724,0837,12212,030.4,045.5,0.452,748.1,01.17,0.508
2015-02-21 03:28:00,2122E-3,5C000000,-0724,0837,12195,030.5,045.5,0.452,748.1,01.17,0.508
2015-02-21 03:29:00,2172E-3,5C000000,-0724,0837,12032,030.5,045.5,0.452,748.0,01.17,0.508
2015-02-21 03:30:00,2258E-3,5C000000,-0724,0837,12300,030.5,045.5,0.451,748.1,01.17,0.508
2015-02-21 03:31:00,2147E-3,5C000000,-0724,0837,12198,030.5,045.5,0.451,748.1,01.17,0.508
2015-02-21 03:32:00,2130E-3,5C000000,-0724,0839,12053,030.5,045.5,0.451,748.1,01.17,0.508
2015-02-21 03:33:00,2184E-3,5C000000,-0724,0836,12017,030.5,045.5,0.452,748.1,01.17,0.508
2015-02-21 03:34:00,2169E-3,5C000000,-0724,0837,12268,030.5,045.5,0.452,748.1,01.17,0.508
2015-02-21 03:35:00,2113E-3,5C000000,-0724,0837,12160,030.5,045.5,0.451,748.1,01.17,0.508
2015-02-21 03:36:00,2108E-3,5C000000,-0724,0836,12251,030.5,045.5,0.451,748.1,01.17,0.508
2015-02-21 03:37:00,2133E-3,5C000000,-0724,0837,12200,030.3,045.5,0.452,748.2,01.17,0.508
2015-02-21 03:38:00,2153E-3,5C000000,-0724,0837,12258,030.2,045.5,0.452,748.0,01.17,0.508
2015-02-21 03:39:00,2168E-3,5C000000,-0724,0836,12169,030.1,045.5,0.452,748.1,01.17,0.508
2015-02-21 03:40:00,2082E-3,5C000000,-0724,0837,12200,029.9,045.5,0.452,748.1,01.17,0.508
2015-02-21 03:41:00,2199E-3,5C000000,-0724,0836,12156,029.7,045.5,0.453,748.2,01.17,0.508
2015-02-21 03:42:00,2128E-3,5C000000,-0724,0837,12061,029.5,045.5,0.453,748.2,01.17,0.508
2015-02-21 03:43:00,2287E-3,5C000000,-0724,0836,12246,029.3,045.5,0.453,748.2,01.17,0.508
2015-02-21 03:44:00,2007E-3,5C000000,-0724,0836,12001,029.2,045.5,0.453,748.2,01.17,0.508
2015-02-21 03:45:00,2163E-3,5C000000,-0724,0836,12180,029.0,045.5,0.453,748.2,01.17,0.508
2015-02-21 03:46:00,2037E-3,5C000000,-0724,0836,12210,028.9,045.5,0.453,748.2,01.17,0.508
2015-02-21 03:47:00,2259E-3,5C000000,-0724,0836,12120,028.7,045.5,0.453,748.2,01.17,0.508
2015-02-21 03:48:00,2162E-3,5C000000,-0724,0835,12177,028.6,045.5,0.454,748.2,01.17,0.508
2015-02-21 03:49:00,2227E-3,5C000000,-0724,0836,12150,028.5,045.5,0.454,748.2,01.17,0.508
2015-02-21 03:50:00,2186E-3,5C000000,-0724,0835,12126,028.5,045.5,0.454,748.2,01.17,0.508
2015-02-21 03:51:00,2136E-3,5C000000,-0724,0835,12095,028.5,045.5,0.455,748.2,01.17,0.508
2015-02-21 03:52:00,2114E-3,5C000000,-0724,0836,11914,028.6,045.5,0.454,748.2,01.17,0.508
2015-02-21 03:53:00,2063E-3,5C000000,-0724,0836,12011,028.7,045.5,0.454,748.2,01.17,0.508
2015-02-21 03:54:00,2141E-3,5C000000,-0724,0836,12211,028.7,045.5,0.454,748.1,01.17,0.508
2015-02-21 03:55:00,2234E-3,5C000000,-0724,0836,12067,028.8,045.5,0.455,748.2,01.17,0.508
2015-02-21 03:56:00,2212E-3,5C000000,-0724,0836,12245,028.9,045.5,0.454,748.2,01.17,0.508
2015-02-21 03:57:00,2074E-3,5C000000,-0724,0836,12087,029.0,045.5,0.454,748.2,01.17,0.508
2015-02-21 03:58:00,2252E-3,5C000000,-0724,0835,12023,029.0,045.5,0.454,748.2,01.17,0.508
2015-02-21 03:59:00,2113E-3,5C000000,-0724,0836,12159,029.1,045.5,0.454,748.2,01.17,0.508
2015-02-21 04:00:00,2224E-3,5C000000,-0724,0837,12012,029.2,045.5,0.454,748.2,01.17,0.508
2015-02-21 04:01:00,2084E-3,5C000000,-0724,0836,12160,029.2,045.5,0.454,748.2,01.17,0.508
2015-02-21 04:02:00,2138E-3,5C000000,-0724,0836,12100,029.3,045.5,0.454,748.1,01.17,0.508
2015-02-21 04:03:00,2196E-3,5C000000,-0724,0837,12019,029.3,045.5,0.454,748.1,01.17,0.508
2015-02-21 04:04:00,1997E-3,5C000000,-0724,0836,12248,029.4,045.5,0.454,748.1,01.17,0.508
2015-02-21 04:05:00,2137E-3,5C000000,-0724,0836,12210,029.4,045.5,0.454,748.2,01.17,0.508
2015-02-21 04:06:00,2115E-3,5C000000,-0724,0837,12185,029.5,045.5,0.454,748.2,01.17,0.508
2015-02-21 04:07:00,2204E-3,5C000000,-0724,0836,12253,029.5,045.5,0.453,748.1,01.17,0.508
2015-02-21 04:08:00,2095E-3,5C000000,-0724,0837,12107,029.6,045.5,0.453,748.1,01.17,0.508
2015-02-21 04:09:00,2150E-3,5C000000,-0724,0836,12188,029.6,045.5,0.453,748.1,01.17,0.508
2015-02-21 04:10:00,2181E-3,5C000000,-0724,0836,12131,029.6,045.5,0.453,748.1,01.17,0.508
2015-02-21 04:11:00,2106E-3,5C000000,-0724,0837,12239,029.7,045.5,0.453,748.1,01.17,0.508
2015-02-21 04:12:00,2200E-3,5C000000,-0724,0836,12036,029.7,045.5,0.453,748.1,01.17,0.508
2015-02-21 04:13:00,2136E-3,5C000000,-0724,0836,12116,029.8,045.5,0.453,748.1,01.17,0.508
2015-02-21 04:14:00,2172E-3,5C000000,-0724,0837,12076,029.8,045.5,0.453,748.1,01.17,0.508
2015-02-21 04:15:00,2083E-3,5C000000,-0724,0836,12031,029.8,045.5,0.453,748.2,01.17,0.508
2015-02-21 04:16:00,2194E-3,5C000000,-0724,0836,12020,029.9,045.5,0.453,748.2,01.17,0.508
2015-02-21 04:17:00,2068E-3,5C000000,-0724,0837,12155,029.9,045.5,0.453,748.2,01.17,0.508
2015-02-21 04:18:00,2075E-3,5C000000,-0724,0837,12199,029.9,045.5,0.453,748.1,01.17,0.508
2015-02-21 04:19:00,2323E-3,5C000000,-0724,0836,12068,030.0,045.5,0.453,748.2,01.17,0.508
2015-02-21 04:20:00,2136E-3,5C000000,-0724,0836,12093,030.0,045.5,0.452,748.1,01.17,0.508